TimePDT,TemperatureF,Dew PointF,Humidity,Sea Level PressureIn,VisibilityMPH,Wind Direction,Wind SpeedMPH,Gust SpeedMPH,PrecipitationIn,Events,Conditions,WindDirDegrees,DateUTC
12:00 AM,53.6,51.3,92,30.02,-9999.0,NE,2.3,-,0.04,,Unknown,50,2012-11-02 07:00:00
1:00 AM,53.1,50.9,92,30.02,-9999.0,ENE,3.5,-,N/A,,Unknown,60,2012-11-02 08:00:00
2:00 AM,53.2,51.1,92,30.03,-9999.0,NE,3.5,-,N/A,,Unknown,40,2012-11-02 09:00:00
3:00 AM,53.6,51.3,92,30.04,-9999.0,ENE,2.3,-,N/A,,Unknown,60,2012-11-02 10:00:00
4:00 AM,53.6,50.9,91,30.04,-9999.0,ENE,3.5,-,N/A,,Unknown,60,2012-11-02 11:00:00
5:00 AM,53,51,88,30.03,,NE,3.5,,,,,40,2012-11-02 12:00:00
5:00 AM,53.2,50.5,91,30.03,-9999.0,NE,3.5,-,N/A,,Unknown,40,2012-11-02 12:00:00
6:00 AM,53.4,50.7,91,30.04,-9999.0,NNE,3.5,-,N/A,,Unknown,30,2012-11-02 13:00:00
7:00 AM,53.4,50.5,90,30.03,-9999.0,NE,2.3,-,N/A,,Unknown,40,2012-11-02 14:00:00
8:00 AM,53.4,50.5,90,30.03,-9999.0,NE,3.5,-,N/A,,Unknown,50,2012-11-02 15:00:00
9:00 AM,53.6,50.5,89,30.04,-9999.0,NE,3.5,-,N/A,,Unknown,40,2012-11-02 16:00:00
10:00 AM,54.1,50.5,88,30.03,-9999.0,ENE,3.5,-,N/A,,Unknown,60,2012-11-02 17:00:00
11:00 AM,57,51,75,30.04,,ENE,4.6,,,,,70,2012-11-02 18:00:00
11:00 AM,57.0,51.3,81,30.04,-9999.0,ENE,4.6,-,N/A,,Unknown,70,2012-11-02 18:00:00
12:00 PM,57.4,51.6,81,30.04,-9999.0,East,4.6,-,N/A,,Unknown,80,2012-11-02 19:00:00
1:00 PM,59.9,52.2,76,30.02,-9999.0,NE,3.5,-,N/A,,Unknown,50,2012-11-02 20:00:00
2:00 PM,61.3,51.3,69,30.00,-9999.0,ENE,3.5,-,N/A,,Unknown,70,2012-11-02 21:00:00
3:00 PM,60.8,51.1,70,29.99,-9999.0,NE,3.5,-,N/A,,Unknown,50,2012-11-02 22:00:00
4:00 PM,60.3,51.8,74,29.99,-9999.0,NE,2.3,-,N/A,,Unknown,50,2012-11-02 23:00:00
5:00 PM,59,52,71,29.97,,NE,3.5,,,,,40,2012-11-03 00:00:00
5:00 PM,59.0,52.0,78,29.97,-9999.0,NE,3.5,-,N/A,,Unknown,40,2012-11-03 00:00:00
6:00 PM,57.9,52.2,81,29.97,-9999.0,NE,2.3,-,N/A,,Unknown,50,2012-11-03 01:00:00
7:00 PM,57.4,51.6,81,29.99,-9999.0,SSE,2.3,-,0.01,,Unknown,160,2012-11-03 02:00:00
8:00 PM,54.1,50.0,86,29.98,-9999.0,East,3.5,-,0.06,,Unknown,80,2012-11-03 03:00:00
9:00 PM,53.8,50.5,89,29.97,-9999.0,NE,3.5,-,0.02,,Unknown,40,2012-11-03 04:00:00
10:00 PM,54.0,50.9,89,29.97,-9999.0,NE,3.5,-,N/A,,Unknown,50,2012-11-03 05:00:00
11:00 PM,54,51,86,29.96,,NE,3.5,,,,,40,2012-11-03 06:00:00
11:00 PM,54.0,51.1,90,29.96,-9999.0,NE,3.5,-,N/A,,Unknown,40,2012-11-03 06:00:00